GW3210 Weather Reports


time (UTC)temp
C
wind
direction
speed
KPH
gust
KPH
rain 1hr
cm
rain 24hr
cm
rain mn
cm
humidity
%
barometer
mb
20260901020416 28 203 1.6 3.2 0.00 0.00 0.00 25 1009.1
20260901015416 28 248 3.2 4.8 0.00 0.00 0.00 23 1009.2
20260901014416 28 293 4.8 6.4 0.00 0.00 0.00 22 1009.1
20260901013416 29 293 3.2 4.8 0.00 0.00 0.00 22 1009.1
20260901012416 29 270 4.8 9.7 0.00 0.00 0.00 22 1009.2
20260901011416 30 293 3.2 4.8 0.00 0.00 0.00 22 1009.2
20260901010416 30 293 1.6 3.2 0.00 0.00 0.00 22 1009.2
20260901005416 29 270 3.2 6.4 0.00 0.00 0.00 22 1009.4
20260901004436 29 293 1.6 3.2 0.00 0.00 0.00 22 1009.5
20260901003416 30 0.0 1.6 0.00 0.00 0.00 21 1009.4
20260901002416 30 315 3.2 4.8 0.00 0.00 0.00 22 1009.5
20260901001416 29 270 3.2 4.8 0.00 0.00 0.00 23 1009.4
20260901000416 30 270 3.2 4.8 0.00 0.00 0.00 21 1009.5
20260831235416 30 248 3.2 4.8 0.00 0.00 0.00 22 1009.5
20260831234416 30 293 6.4 9.7 0.00 0.00 0.00 23 1009.6
20260831233416 29 315 4.8 8.0 0.00 0.00 0.00 24 1009.6
20260831232416 29 270 6.4 12.9 0.00 0.00 0.00 23 1009.7
20260831231416 29 248 4.8 8.0 0.00 0.00 0.00 25 1009.8
20260831230416 29 203 4.8 9.7 0.00 0.00 0.00 25 1009.8
20260831225456 29 248 9.7 12.9 0.00 0.00 0.00 25 1009.8
20260831224416 29 225 3.2 6.4 0.00 0.00 0.00 25 1009.9
20260831223415 28 270 3.2 6.4 0.00 0.00 0.00 26 1010.1
20260831222416 28 248 3.2 6.4 0.00 0.00 0.00 28 1010.0
20260831221416 28 270 6.4 14.5 0.00 0.00 0.00 27 1010.3
20260831220416 28 225 6.4 14.5 0.00 0.00 0.00 27 1010.3
20260831215415 28 248 6.4 12.9 0.00 0.00 0.00 27 1010.4
20260831214416 28 225 4.8 9.7 0.00 0.00 0.00 28 1010.4
20260831213416 28 270 8.0 12.9 0.00 0.00 0.00 29 1010.5
20260831212415 28 248 9.7 12.9 0.00 0.00 0.00 28 1010.6
20260831211416 27 270 9.7 14.5 0.00 0.00 0.00 29 1010.6
20260831210419 27 270 8.0 16.1 0.00 0.00 0.00 29 1010.7
20260831205436 27 293 8.0 11.3 0.00 0.00 0.00 30 1010.8
20260831204416 27 293 6.4 11.3 0.00 0.00 0.00 31 1010.8
20260831203416 27 293 8.0 11.3 0.00 0.00 0.00 31 1010.8
20260831202416 27 270 8.0 11.3 0.00 0.00 0.00 32 1010.9
20260831201415 27 270 6.4 11.3 0.00 0.00 0.00 32 1011.0
20260831200415 27 315 4.8 9.7 0.00 0.00 0.00 32 1011.2
20260831195415 26 270 8.0 14.5 0.00 0.00 0.00 33 1011.4
20260831194435 26 293 6.4 12.9 0.00 0.00 0.00 33 1011.5
20260831193415 26 315 6.4 9.7 0.00 0.00 0.00 33 1011.6
20260831192418 25 270 4.8 9.7 0.00 0.00 0.00 35 1011.7
20260831191435 25 270 9.7 14.5 0.00 0.00 0.00 35 1012.0
20260831190415 25 315 4.8 8.0 0.00 0.00 0.00 36 1012.0
20260831185415 24 293 9.7 14.5 0.00 0.00 0.00 36 1012.2
20260831184416 24 293 8.0 12.9 0.00 0.00 0.00 38 1012.2
20260831183415 23 315 1.6 4.8 0.00 0.00 0.00 38 1012.2
20260831182415 23 293 4.8 8.0 0.00 0.00 0.00 40 1012.4
20260831181415 22 338 4.8 8.0 0.00 0.00 0.00 43 1012.6
20260831180415 22 338 6.4 8.0 0.00 0.00 0.00 45 1012.7
20260831175415 21 270 6.4 11.3 0.00 0.00 0.00 45 1012.6
20260831174435 20 315 6.4 11.3 0.00 0.00 0.00 47 1012.6
20260831173417 20 338 4.8 6.4 0.00 0.00 0.00 51 1012.7
20260831172418 19 315 6.4 8.0 0.00 0.00 0.00 52 1012.8
20260831171417 18 315 6.4 8.0 0.00 0.00 0.00 55 1012.9
20260831170437 17 293 6.4 12.9 0.00 0.00 0.00 56 1012.8
20260831165417 16 293 4.8 4.8 0.00 0.00 0.00 58 1012.7
20260831164417 15 270 11.3 12.9 0.00 0.00 0.00 59 1012.7
20260831163417 15 270 8.0 11.3 0.00 0.00 0.00 61 1012.9
20260831162417 14 293 6.4 6.4 0.00 0.00 0.00 61 1013.0
20260831161417 13 270 8.0 11.3 0.00 0.00 0.00 63 1013.0
20260831160417 13 293 6.4 9.7 0.00 0.00 0.00 64 1013.2
20260831155417 13 315 4.8 8.0 0.00 0.00 0.00 65 1013.2
20260831154417 12 293 6.4 8.0 0.00 0.00 0.00 65 1013.3
20260831153417 12 293 4.8 9.7 0.00 0.00 0.00 66 1013.4
20260831152417 12 270 8.0 11.3 0.00 0.00 0.00 67 1013.3
20260831151437 12 293 4.8 6.4 0.00 0.00 0.00 67 1013.4
20260831150417 12 293 4.8 4.8 0.00 0.00 0.00 70 1013.3
20260831145417 12 293 4.8 4.8 0.00 0.00 0.00 72 1013.5
20260831144437 11 293 3.2 3.2 0.00 0.00 0.00 73 1013.5
20260831143417 11 293 1.6 3.2 0.00 0.00 0.00 73 1013.5
20260831142417 11 293 3.2 3.2 0.00 0.00 0.00 73 1013.5
20260831141417 11 293 1.6 3.2 0.00 0.00 0.00 73 1013.4
20260831140417 11 270 3.2 4.8 0.00 0.00 0.00 74 1013.5
20260831135408 11 293 3.2 3.2 0.00 0.00 0.00 74 1013.5
20260831135117 11 293 3.2 4.8 0.00 0.00 0.00 73 1013.6
20260831134116 11 203 1.6 3.2 0.00 0.00 0.00 72 1013.5
20260831133117 11 0.0 1.6 0.00 0.00 0.00 69 1013.5
20260831132116 11 0.0 1.6 0.00 0.00 0.00 69 1013.6
20260831131136 11 0.0 0.0 0.00 0.00 0.00 69 1013.7
20260831130116 11 0.0 0.0 0.00 0.00 0.00 69 1013.7
20260831125117 11 0.0 0.0 0.00 0.00 0.00 68 1013.8
20260831124116 11 0.0 0.0 0.00 0.00 0.00 67 1013.9
20260831123117 11 0.0 0.0 0.00 0.00 0.00 67 1013.9
20260831122117 11 0.0 0.0 0.00 0.00 0.00 66 1014.1
20260831121116 11 0.0 1.6 0.00 0.00 0.00 66 1014.2
20260831120137 11 0.0 1.6 0.00 0.00 0.00 66 1014.2
20260831115136 11 158 1.6 1.6 0.00 0.00 0.00 67 1014.2
20260831114137 12 158 1.6 1.6 0.00 0.00 0.00 67 1014.2
20260831113117 12 0.0 0.0 0.00 0.00 0.00 67 1014.2
20260831112117 12 0.0 0.0 0.00 0.00 0.00 67 1014.4
20260831111116 12 0.0 0.0 0.00 0.00 0.00 66 1014.4
20260831110136 12 0.0 0.0 0.00 0.00 0.00 67 1014.6
20260831105116 12 0.0 0.0 0.00 0.00 0.00 67 1014.6
20260831104116 12 0.0 0.0 0.00 0.00 0.00 67 1014.6
20260831103116 12 0.0 0.0 0.00 0.00 0.00 67 1014.6
20260831102136 12 0.0 0.0 0.00 0.00 0.00 66 1014.8
20260831101116 12 0.0 0.0 0.00 0.00 0.00 66 1014.8
20260831100116 12 0.0 1.6 0.00 0.00 0.00 66 1014.9
20260831095116 12 158 1.6 1.6 0.00 0.00 0.00 66 1015.0
20260831094116 12 158 1.6 1.6 0.00 0.00 0.00 66 1015.1
20260831093116 12 0.0 0.0 0.00 0.00 0.00 65 1015.2
20260831092118 12 0.0 0.0 0.00 0.00 0.00 65 1015.3
20260831091116 13 0.0 0.0 0.00 0.00 0.00 65 1015.4
20260831090116 13 158 1.6 1.6 0.00 0.00 0.00 64 1015.3
20260831085136 13 0.0 1.6 0.00 0.00 0.00 64 1015.5
20260831084116 13 158 1.6 1.6 0.00 0.00 0.00 65 1015.6
20260831083116 13 158 1.6 1.6 0.00 0.00 0.00 64 1015.6
20260831082116 13 135 1.6 1.6 0.00 0.00 0.00 64 1015.7
20260831081116 13 135 3.2 4.8 0.00 0.00 0.00 64 1015.9
20260831080136 13 113 3.2 4.8 0.00 0.00 0.00 63 1015.9
20260831075116 13 0.0 0.0 0.00 0.00 0.00 63 1016.0
20260831074116 13 0.0 1.6 0.00 0.00 0.00 62 1016.1
20260831073116 13 0.0 1.6 0.00 0.00 0.00 62 1016.2
20260831072118 14 0.0 0.0 0.00 0.00 0.00 61 1016.3
20260831065116 15 68 1.6 3.2 0.00 0.00 0.00 60 1016.5
20260831064117 15 23 1.6 3.2 0.00 0.00 0.00 60 1016.6
20260831063117 15 23 3.2 4.8 0.00 0.00 0.00 59 1016.6
20260831062117 15 0.0 1.6 0.00 0.00 0.00 59 1016.7
20260831061137 15 293 1.6 3.2 0.00 0.00 0.00 58 1016.9
20260831060137 16 293 1.6 1.6 0.00 0.00 0.00 58 1016.9
20260831055116 16 315 1.6 4.8 0.00 0.00 0.00 57 1017.0
20260831054137 16 293 3.2 4.8 0.00 0.00 0.00 57 1017.1
20260831053117 16 315 4.8 8.0 0.00 0.00 0.00 57 1017.1
20260831052116 16 315 8.0 11.3 0.00 0.00 0.00 57 1017.3
20260831051116 16 315 4.8 8.0 0.00 0.00 0.00 56 1017.3
20260831050117 16 315 6.4 11.3 0.00 0.00 0.00 56 1017.4
20260831045116 16 338 3.2 4.8 0.00 0.00 0.00 55 1017.4
20260831044116 16 315 3.2 4.8 0.00 0.00 0.00 55 1017.5
20260831043136 17 338 4.8 6.4 0.00 0.00 0.00 54 1017.5
20260831042116 17 315 4.8 6.4 0.00 0.00 0.00 53 1017.5
20260831041116 17 315 4.8 6.4 0.00 0.00 0.00 53 1017.5
20260831040116 17 315 3.2 4.8 0.00 0.00 0.00 52 1017.5
20260831035116 17 293 6.4 9.7 0.00 0.00 0.00 51 1017.6
20260831034117 17 315 4.8 6.4 0.00 0.00 0.00 50 1017.5
20260831033137 18 293 3.2 4.8 0.00 0.00 0.00 49 1017.5
20260831032116 18 315 3.2 4.8 0.00 0.00 0.00 48 1017.5
20260831031136 18 315 6.4 9.7 0.00 0.00 0.00 48 1017.6
20260831030136 18 293 6.4 11.3 0.00 0.00 0.00 47 1017.6
20260831025116 19 338 4.8 6.4 0.00 0.00 0.00 46 1017.5
20260831024116 19 338 6.4 12.9 0.00 0.00 0.00 45 1017.7
20260831023116 20 315 8.0 12.9 0.00 0.00 0.00 44 1017.8
20260831022136 20 338 8.0 17.7 0.00 0.00 0.00 43 1017.8
20260831021136 20 0 6.4 9.7 0.00 0.00 0.00 42 1017.9